Location: Salisbury
(35.6710°N, 80.4740°W)
Time: 19:42:33
(UTC-04:00)

Tiangong 2 - Visible Passes

Search period start: 27 May 2018 00:00
Search period end: 06 June 2018 00:00
Orbit: 382 x 385 km, 42.8° (Epoch: 27 May)

Date Brightness Start Highest point End Pass type
(mag) Time Alt. Az. Time Alt. Az. Time Alt. Az.
27 May 3.4 21:57:49 10° NW 22:00:20 21° N 22:02:50 10° NE visible
27 May 4.2 23:34:33 10° NW 23:35:16 15° NW 23:35:16 15° NW visible
28 May 3.4 20:57:45 10° WNW 21:00:18 22° N 21:02:50 10° NE visible
28 May 2.7 22:34:47 10° NW 22:37:36 28° NNE 22:38:01 27° NNE visible
29 May 3.2 21:34:58 10° NW 21:37:35 23° N 21:40:12 10° ENE visible
29 May 3.4 23:11:32 10° WNW 23:12:56 24° NW 23:12:56 24° NW visible
30 May 2.1 22:11:45 10° NW 22:14:45 40° NNE 22:15:39 31° ENE visible
31 May 2.8 21:11:58 10° NW 21:14:46 28° NNE 21:17:34 10° ENE visible
31 May 2.5 22:48:32 10° WNW 22:50:34 35° W 22:50:34 35° W visible
01 Jun 1.3 21:48:41 10° WNW 21:51:49 65° NNE 21:53:18 27° E visible
02 Jun 2.2 22:25:42 10° W 22:28:16 32° SW 22:28:16 32° SW visible
03 Jun 1.1 21:25:39 10° WNW 21:28:48 68° SSW 21:31:04 17° SE visible
04 Jun 3.1 22:03:10 10° W 22:05:23 18° SW 22:06:06 17° SSW visible
05 Jun 2.2 21:02:45 10° W 21:05:40 34° SSW 21:08:33 10° SSE visible
